{"data":{"norad_id":62115,"intl_designator":"2024-222B","name":"STARLINK-32470","alt_names":[],"object_type":"PAYLOAD","status":"ACTIVE","operator":null,"country":"US","launch_date":"2024-11-27","launch_site_code":"AFETR","launch_vehicle":null,"mission":null,"orbit_class":"UNKNOWN","rcs_meters":null,"size_class":null,"mass_kg":null,"dimensions":null,"purposes":["comms"],"wikipedia_slug":null,"has_3d_model":false,"image_url":null,"decayed_at":null,"tle_current":{"epoch":"2026-09-21T22:21:13.777344Z","epoch_age_seconds":57892,"freshness":"FRESH","line1":"1 62115U 24222B   26264.93140946  .00009978  00000+0  37156-3 0  9990","line2":"2 62115  42.9994 107.7411 0000644 297.6854  62.3932 15.27585403102918","mean_motion":15.27585403,"eccentricity":6.44e-5,"inclination_deg":42.9994,"raan_deg":107.7411,"arg_perigee_deg":297.6854,"mean_anomaly_deg":62.3932,"bstar":0.00037156,"rev_number":10291,"period_min":94.266415296455,"perigee_km":482.59105821893,"apogee_km":483.47477690431,"semimajor_km":6861.1699175616,"source":"CELESTRAK","updated_at":"2026-09-22T09:00:49.523667Z"}}}